Year,Month,Day,Hour,Minute,Value (Times are PST for insolation in W/m^2)
2008,12,26,10,49,62.00
2008,12,26,10,50,65.80
2008,12,26,10,51,69.00
2008,12,26,10,52,69.00
2008,12,26,10,53,69.00
2008,12,26,10,54,69.00
2008,12,26,10,55,67.60
2008,12,26,10,56,67.00
2008,12,26,10,57,66.90
2008,12,26,10,58,65.00
2008,12,26,10,59,64.20
2008,12,26,11,00,62.50
2008,12,26,11,01,59.40
2008,12,26,11,02,56.20
2008,12,26,11,03,55.60
2008,12,26,11,04,50.40
2008,12,26,11,05,49.00
2008,12,26,11,06,47.80
2008,12,26,11,07,47.00
2008,12,26,11,08,47.00
2008,12,26,11,09,47.00
2008,12,26,11,10,47.00
2008,12,26,11,11,46.50
2008,12,26,11,12,46.00
2008,12,26,11,13,46.00
2008,12,26,11,14,46.00
2008,12,26,11,15,46.00
2008,12,26,11,16,46.00
2008,12,26,11,17,46.00
2008,12,26,11,18,46.00
2008,12,26,11,19,46.00
2008,12,26,11,20,47.00
2008,12,26,11,21,47.40
2008,12,26,11,22,49.00
2008,12,26,11,23,49.00
2008,12,26,11,24,49.00
2008,12,26,11,25,50.60
2008,12,26,11,26,50.90
2008,12,26,11,27,49.00
2008,12,26,11,28,49.00
2008,12,26,11,29,50.10
2008,12,26,11,30,51.00
2008,12,26,11,31,51.00
2008,12,26,11,32,51.10
2008,12,26,11,33,53.00
2008,12,26,11,34,53.00
2008,12,26,11,35,53.00
2008,12,26,11,36,53.00
2008,12,26,11,37,53.00
2008,12,26,11,38,53.00
2008,12,26,11,39,53.00
2008,12,26,11,40,53.00
2008,12,26,11,41,53.00
2008,12,26,11,42,53.00
2008,12,26,11,43,53.00
2008,12,26,11,44,53.00
2008,12,26,11,45,52.50
2008,12,26,11,46,50.10
2008,12,26,11,47,49.00
2008,12,26,11,48,47.60
2008,12,26,11,49,46.10
2008,12,26,11,50,43.70
2008,12,26,11,51,41.00
2008,12,26,11,52,38.10
2008,12,26,11,53,35.90
2008,12,26,11,54,33.50
2008,12,26,11,55,33.00
2008,12,26,11,56,31.70
2008,12,26,11,57,30.00
2008,12,26,11,58,30.90
2008,12,26,11,59,32.60
2008,12,26,12,00,32.30
2008,12,26,12,01,32.10
2008,12,26,12,02,33.00
2008,12,26,12,03,33.70
2008,12,26,12,04,35.90
2008,12,26,12,05,38.30
2008,12,26,12,06,41.20
2008,12,26,12,07,44.10
2008,12,26,12,08,46.00
2008,12,26,12,09,46.00
2008,12,26,12,10,46.00
2008,12,26,12,11,46.00
2008,12,26,12,12,46.80
2008,12,26,12,13,49.10
2008,12,26,12,14,51.40
2008,12,26,12,15,53.00
2008,12,26,12,16,53.00
2008,12,26,12,17,51.70
2008,12,26,12,18,49.20
2008,12,26,12,19,46.90
2008,12,26,12,20,45.40
2008,12,26,12,21,44.00
2008,12,26,12,22,43.00
2008,12,26,12,23,42.00
2008,12,26,12,24,40.20
2008,12,26,12,25,42.00
2008,12,26,12,26,42.00
2008,12,26,12,27,42.00
2008,12,26,12,28,40.80
2008,12,26,12,29,37.90
2008,12,26,12,30,37.00
2008,12,26,12,31,37.30
2008,12,26,12,32,39.00
2008,12,26,12,33,39.40
2008,12,26,12,34,41.30
2008,12,26,12,35,43.60
2008,12,26,12,36,45.70
2008,12,26,12,37,47.40
2008,12,26,12,38,49.00
2008,12,26,12,39,48.10
2008,12,26,12,40,47.00
2008,12,26,12,41,46.20
2008,12,26,12,42,46.00
2008,12,26,12,43,46.00
2008,12,26,12,44,46.00
2008,12,26,12,45,46.50
2008,12,26,12,46,47.00
2008,12,26,12,47,44.50
2008,12,26,12,48,39.90
2008,12,26,12,49,38.60
2008,12,26,12,50,36.20
2008,12,26,12,51,33.90
2008,12,26,12,52,32.40
2008,12,26,12,53,32.00
2008,12,26,12,54,33.10
2008,12,26,12,55,35.40
2008,12,26,12,56,37.80
2008,12,26,12,57,39.00
2008,12,26,12,58,39.00
2008,12,26,12,59,37.40
2008,12,26,13,00,37.00
2008,12,26,13,01,37.50
2008,12,26,13,02,39.40
2008,12,26,13,03,40.00
2008,12,26,13,04,37.80
2008,12,26,13,05,33.40
2008,12,26,13,06,32.80
2008,12,26,13,07,32.00
2008,12,26,13,08,32.40
2008,12,26,13,09,33.00
2008,12,26,13,10,36.10
2008,12,26,13,11,37.00
2008,12,26,13,12,34.80
2008,12,26,13,13,33.00
2008,12,26,13,14,31.70
2008,12,26,13,15,30.00
2008,12,26,13,16,31.60
2008,12,26,13,17,32.00
2008,12,26,13,18,29.80
2008,12,26,13,19,28.00
2008,12,26,13,20,28.00
2008,12,26,13,21,26.10
2008,12,26,13,22,23.60
2008,12,26,13,23,25.00
2008,12,26,13,24,25.80
2008,12,26,13,25,24.40
2008,12,26,13,26,24.00
2008,12,26,13,27,25.00
2008,12,26,13,28,25.00
2008,12,26,13,29,23.00
2008,12,26,13,30,25.00
2008,12,26,13,31,25.40
2008,12,26,13,32,24.60
2008,12,26,13,33,21.60
2008,12,26,13,34,21.00
2008,12,26,13,35,21.10
2008,12,26,13,36,22.60
2008,12,26,13,37,21.00
2008,12,26,13,38,22.00
2008,12,26,13,39,24.40
2008,12,26,13,40,25.80
2008,12,26,13,41,27.80
2008,12,26,13,42,25.20
2008,12,26,13,43,23.00
2008,12,26,13,44,24.20
2008,12,26,13,45,23.70
2008,12,26,13,46,18.30
2008,12,26,13,47,19.10
2008,12,26,13,48,21.00
2008,12,26,13,49,21.80
2008,12,26,13,50,24.10
2008,12,26,13,51,25.80
2008,12,26,13,52,25.10
2008,12,26,13,53,21.00
2008,12,26,13,54,21.00
2008,12,26,13,55,22.80
2008,12,26,13,56,26.60
2008,12,26,13,57,31.10
2008,12,26,13,58,32.90
2008,12,26,13,59,30.80
2008,12,26,14,00,25.00
2008,12,26,14,01,25.50
2008,12,26,14,02,25.40
2008,12,26,14,03,25.00
2008,12,26,14,04,25.00
2008,12,26,14,05,24.60
2008,12,26,14,06,23.00
2008,12,26,14,07,22.10
2008,12,26,14,08,21.00
2008,12,26,14,09,21.00
2008,12,26,14,10,19.00
2008,12,26,14,11,19.40
2008,12,26,14,12,21.00
2008,12,26,14,13,21.90
2008,12,26,14,14,23.00
2008,12,26,14,15,23.00
2008,12,26,14,16,23.00
2008,12,26,14,17,23.50
2008,12,26,14,18,25.40
2008,12,26,14,19,26.00
2008,12,26,14,20,26.00
2008,12,26,14,21,27.80
2008,12,26,14,22,28.00
2008,12,26,14,23,28.00
2008,12,26,14,24,28.00
2008,12,26,14,25,28.00
2008,12,26,14,26,29.40
2008,12,26,14,27,30.00
2008,12,26,14,28,30.20
2008,12,26,14,29,30.90
2008,12,26,14,30,26.70
2008,12,26,14,31,23.80
2008,12,26,14,32,23.00
2008,12,26,14,33,24.90
2008,12,26,14,34,25.30
2008,12,26,14,35,28.00
2008,12,26,14,36,28.00
2008,12,26,14,37,28.00
2008,12,26,14,38,25.70
2008,12,26,14,39,23.10
2008,12,26,14,40,19.00
2008,12,26,14,41,19.00
2008,12,26,14,42,20.00
2008,12,26,14,43,22.30
2008,12,26,14,44,21.60
2008,12,26,14,45,21.00
2008,12,26,14,46,21.00
2008,12,26,14,47,20.40
2008,12,26,14,48,19.00
2008,12,26,14,49,18.40
2008,12,26,14,50,18.80
2008,12,26,14,51,19.00
2008,12,26,14,52,18.00
2008,12,26,14,53,18.40
2008,12,26,14,54,19.00
2008,12,26,14,55,19.00
2008,12,26,14,56,19.00
2008,12,26,14,57,19.00
2008,12,26,14,58,19.00
2008,12,26,14,59,19.80
2008,12,26,15,00,21.00
2008,12,26,15,01,22.40
2008,12,26,15,02,21.20
2008,12,26,15,03,21.20
2008,12,26,15,04,23.00
2008,12,26,15,05,23.00
2008,12,26,15,06,21.80
2008,12,26,15,07,21.00
2008,12,26,15,08,21.00
2008,12,26,15,09,18.90
2008,12,26,15,10,18.80
2008,12,26,15,11,21.00
2008,12,26,15,12,22.20
2008,12,26,15,13,24.60
2008,12,26,15,14,25.00
2008,12,26,15,15,25.00
2008,12,26,15,16,25.00
2008,12,26,15,17,25.00
2008,12,26,15,18,25.60
2008,12,26,15,19,27.40
2008,12,26,15,20,29.90
2008,12,26,15,21,32.00
2008,12,26,15,22,32.90
2008,12,26,15,23,34.10
2008,12,26,15,24,29.80
2008,12,26,15,25,26.30
2008,12,26,15,26,26.00
2008,12,26,15,27,28.30
2008,12,26,15,28,29.30
2008,12,26,15,29,27.10
2008,12,26,15,30,26.00
2008,12,26,15,31,27.50
2008,12,26,15,32,27.80
2008,12,26,15,33,25.20
2008,12,26,15,34,25.60
2008,12,26,15,35,23.90
2008,12,26,15,36,21.60
2008,12,26,15,37,21.00
2008,12,26,15,38,20.90
2008,12,26,15,39,18.80
2008,12,26,15,40,18.00
2008,12,26,15,41,18.00
2008,12,26,15,42,18.00
2008,12,26,15,43,18.00
2008,12,26,15,44,18.00
2008,12,26,15,45,18.00
2008,12,26,15,46,18.00
2008,12,26,15,47,18.00
2008,12,26,15,48,18.00
2008,12,26,15,49,18.00
2008,12,26,15,50,18.00
2008,12,26,15,51,18.00
2008,12,26,15,52,18.00
